Weather in Belovo

Russia / Novosibirsk Oblast     55°02′41″N   77°30′57″E
temp.,
°C
wind,
m/s
gust,
m/s
humid.,
%
clouds,
%
prec.,
mm/h
press.,
hPa
HPBL,
m
3 march, wed
wed301:00−14wsw359697 0.1 1016195
04:00−15sw349887 0.1 1016105
07:00−16sw469991 0.1 1016165
10:00−16ssw4598100 0.1 1016198
13:00−13ssw6893100 0.1 1017306
16:00−11ssw71092100 0.0 1017424
19:00−13ssw8149397 0.0 1017405
22:00−12ssw9149299 0.0 1016504
4 march, thu
thu401:00−10ssw91491100 0.3 1015542
04:00−8ssw101593100 0.4 1013540
07:00−6ssw101592100 1.1 1013551
10:00−5ssw111692100 0.3 1011580
13:00−3ssw111593100 0.7 1011797
16:00−2ssw101492100 0.4 1010756
19:00−2ssw111694100 1.1 1009760
22:00−2ssw111886100 0.2 1007655
5 march, fri
fri501:00−3ssw101593100 0.4 1006584
04:00−2ssw101693100 0.3 1004586
07:00−2sw91396100 1.3 1004503
10:00−7wsw101588100 0.4 1007441
13:00−7wsw9138694 0.4 1011642
16:00−6sw101583100 0.0 1011698
19:00−6sw101692100 0.4 1013895
22:00−7sw81591100 0.1 1013402
6 march, sat
sat601:00−7sw9168994 0.1 1014398
04:00−4sw9159499 0.3 1013563
07:00−3sw10159599 1.1 1012682
10:00−4sw111691100 1.1 1010813
13:00−4sw121689100 1.6 1009915
16:00−2sw131793100 0.8 10071066
19:00−1sw121894100 1.2 1006800
22:00−1wsw101681100 0.1 1006759
7 march, sun
sun701:00−7wsw9158963 0.1 1010401
04:00−11wsw8129194 0.0 1013286
07:00−15wsw6109676 0.0 1016180
10:00−15wsw5894100 0.0 1017203
13:00−11sw4685100 0.0 1017244
16:00−8sse71081100 0.0 1014372
19:00−2ssw91591100 0.1 1010756
22:00−2ssw101694100 0.3 1008541